Zurück zum Katalog

FENGYUN 1C DEB

AktivSSO
NORAD 33697·DEBRIS·🇨🇳 China

Gestartet May 10, 1999 von Taiyuan Satellite Launch Center

Loading…

Nächste Überflüge (nächste 24 Stunden)

TLE

AlterndSource: Space-Track

Epoche: Sep 5, 2026, 01:50 UTC

1 33697U 99025DGJ 26248.07704149  .00001430  00000-0  74078-3 0  9994
2 33697  99.0119 356.1273 0070972 223.2301 136.3288 14.15240251969789

Verfolge FENGYUN 1C DEB in Echtzeit mit AllMySat

Download on the App Store